Regional Weather Roundup
Issued by NWS Midland/Odessa, TX

Skip options and go directly to product.
Home | Oldest Version | Previous Version | Current Version | All | Text Only | Save Text | Print | Product List | Glossary On

Skip product version selection by date and time.   
979
ASUS44 KMAF 171910
RWRMAF
MIDLAND AREA WEATHER ROUNDUP
NATIONAL WEATHER SERVICE MIDLAND TX
200 PM CDT WED SEP 17 2014

...IN SOUTHWEST TEXAS AND SOUTHEAST NEW MEXICO...

CITY           SKY/WX    TMP DP  RH WIND       PRES   REMARKS
ALPINE         PTSUNNY   81  60  49 S6        30.14F
ANDREWS        FAIR      82  65  56 S8        30.04F
ARTESIA        NOT AVBL
BIG SPRING     PTSUNNY   85  65  50 SW3       30.03F
CARLSBAD       MOSUNNY   80  67  64 E5        30.02F
DRYDEN           N/A     89  67  47 VRB5      29.96F
FORT STOCKTON  SUNNY     83  63  50 SE6G16    30.01F
GUAD PASS      LGT RAIN  72  59  63 CALM      30.17F
HOBBS          PTSUNNY   79  66  65 S7        30.07F
MARFA          SUNNY     79  59  50 S7        30.13F
MIDLAND AIRPK  NOT AVBL
MIDLAND INTL   PTSUNNY   84  65  52 S9        30.01F
ODESSA         MOSUNNY   83  64  52 SW6       30.03F
PECOS          SUNNY     85  62  45 S6        29.98F
PRESIDIO       FAIR      87  60  39 SE6       29.98F
SEMINOLE       MOSUNNY   83  64  51 S7        30.05F
SNYDER         PTSUNNY   80  71  74 N3        30.01F
WINK           MOSUNNY   86  65  49 VRB3G17   29.99F
$$
...OTHER STATIONS IN TEXAS...

CITY           SKY/WX    TMP DP  RH WIND       PRES   REMARKS
ABILENE        PTSUNNY   89  65  44 VRB3      29.96F
AMARILLO       CLOUDY    78  64  61 SW14      30.06F
AUSTIN         LGT RAIN  81  76  84 NE8       29.92F
BROWNSVILLE    MOSUNNY   90  78  68 S9        29.90F HX 104
CORPUS CHRISTI PTSUNNY   90  75  61 S13       29.90F HX 100
DALLAS FTW     PTSUNNY   92  67  43 S6        29.92F
DEL RIO        CLOUDY    87  72  60 VRB3      29.91F
EL PASO        PTSUNNY   78  63  59 N9        30.04F
HOUSTON INT    CLOUDY    87  73  62 CALM      29.93F
LUBBOCK        PTSUNNY   81  67  62 W8        30.05F
SAN ANGELO     PTSUNNY   88  66  48 N5        29.96F
SAN ANTONIO    CLOUDY    86  71  60 S7        29.93F
WACO           MOSUNNY   89  70  53 SW3       29.93F
WICHITA FALLS  NOT AVBL
$$
...OTHER LOCATIONS IN NEW MEXICO...

CITY           SKY/WX    TMP DP  RH WIND       PRES   REMARKS
ALAMAGORDO     PTSUNNY   73  63  68 N6        30.10F
ALBUQUERQUE    LGT RAIN  65  58  78 N5        30.19F
CANNON AFB     NOT AVBL
CLOVIS           N/A     66  64  94 W6        30.14F
HOLLOMAN AFB   NOT AVBL
ROSWELL        PTSUNNY   74  64  71 CALM      30.07F
RUIDOSO        LGT RAIN  59  57  94 N7        30.26F
SANTA FE       LGT RAIN  63  54  72 S7        30.22F
TRUTH OR CONSE PTSUNNY   71  62  73 CALM      30.12F
TUCUMCARI      CLOUDY    76  59  55 S20       30.08S
$$

USA.gov is the U.S. government's official web portal to all federal, state and local government web resources and services.